SCP
0 0 0 0 0 1 1 1 1 1 1 1 1 1 1 1 1 0 0 0 0 0 0 0 0 0 0 0 0 0 0 0 0 0 0 0 0 0 0 0 0 0 0
1 1 0 0 0 1 1 1 1 1 1 1 1 1 0 0 0 0 0 0 0 0 0 0 0 0 0 0 0 0 0 0 0 0 0 0 0 0 0 0 0 0 0
1 1 1 0 1 1 1 1 1 1 1 1 0 0 0 0 0 0 0 1 0 0 0 0 0 0 0 0 0 0 0 0 0 0 0 0 0 0 0 0 0 0 0
1 1 1 1 1 1 1 1 1 1 1 1 0 0 0 0 0 0 0 0 0 0 0 0 0 0 0 0 0 0 0 0 0 0 0 0 0 0 0 0 0 0 0
1 1 1 1 1 1 1 1 1 1 1 1 0 0 0 0 0 0 0 0 0 0 0 0 0 0 0 0 0 0 0 0 0 0 0 0 0 0 0 0 0 0 0
1 1 1 1 1 1 1 1 1 1 1 1 0 0 0 0 0 0 0 0 0 0 0 0 0 0 0 0 0 0 0 0 0 0 0 0 0 0 0 0 0 0 0
1 1 1 1 1 1 1 1 1 1 1 1 1 1 1 0 0 0 0 0 0 0 0 0 0 0 0 0 0 0 0 0 0 0 0 0 0 0 0 0 0 0 0
1 1 1 1 1 1 1 1 1 1 1 1 1 1 1 1 1 0 0 0 0 0 0 0 0 0 0 0 0 0 0 0 0 0 0 0 0 0 0 0 0 0 0
1 1 1 1 1 1 1 1 1 1 1 1 1 1 1 1 0 0 0 0 0 0 0 0 0 0 0 0 0 0 0 0 0 0 0 0 0 0 0 0 0 0 0
1 1 1 1 0 1 1 1 1 1 1 1 1 1 1 0 0 0 0 0 0 0 0 0 0 0 0 0 0 0 0 0 0 0 0 0 0 0 0 0 0 0 0
1 1 1 1 1 1 1 1 1 1 1 1 1 1 0 0 0 0 0 0 0 0 0 0 0 0 0 0 0 0 0 0 0 0 0 0 0 0 0 0 0 0 0
1 1 1 1 1 1 1 1 1 1 1 1 1 1 1 0 0 0 0 0 0 0 0 0 0 0 0 0 0 0 0 0 0 0 0 0 0 0 0 0 0 0 0
1 1 1 1 1 1 1 1 1 1 1 1 1 1 1 1 0 0 0 0 0 0 0 0 0 0 0 0 0 0 0 0 0 0 0 0 0 0 0 0 0 0 0
1 1 1 2 2 2 1 1 1 1 1 1 1 1 1 1 1 1 0 0 0 0 0 0 0 0 0 0 0 0 0 0 0 0 0 0 0 0 0 0 0 0 0
2 2 2 3 3 3 2 2 1 1 1 1 1 1 1 1 1 1 1 1 0 0 0 0 0 0 0 0 0 0 0 0 0 0 0 0 0 0 0 0 0 0 0
2 2 2 3 3 3 3 2 2 2 2 1 1 1 1 1 1 1 1 1 1 1 0 0 0 0 0 0 0 0 0 0 0 0 0 0 0 0 0 0 0 0 0
2 2 2 2 3 3 3 3 3 2 2 2 1 1 1 1 1 1 1 1 1 1 1 1 0 0 0 0 0 0 0 0 0 0 0 0 0 0 0 0 0 0 0
2 2 2 2 2 2 2 3 3 2 2 2 2 2 1 1 1 1 1 1 1 1 1 1 1 1 0 0 0 0 0 0 0 0 0 0 0 0 0 0 0 0 0
2 2 2 2 2 2 2 2 3 2 2 2 2 2 2 2 1 1 1 1 1 1 1 1 1 1 1 0 0 0 0 0 0 0 0 0 0 0 0 0 0 0 0
3 3 2 2 2 2 2 2 2 2 2 2 1 1 2 2 2 1 1 2 1 1 1 1 1 1 1 0 0 0 1 1 0 0 0 0 0 0 0 0 0 0 0
3 3 3 3 2 2 2 2 2 2 2 2 1 1 1 1 1 1 1 1 1 1 1 1 1 1 1 1 1 1 1 1 1 0 0 0 0 0 0 0 0 0 0
3 3 3 3 3 3 3 3 2 2 2 2 2 2 1 1 1 1 1 1 1 1 1 1 1 1 1 1 1 1 1 0 0 0 0 0 0 0 0 0 0 1 1
3 3 3 4 3 3 3 3 3 3 3 2 2 2 2 2 2 2 1 1 1 1 1 1 1 1 1 1 1 1 1 0 0 0 0 0 0 0 1 0 0 1 1
3 4 4 4 4 4 3 4 4 3 3 3 3 3 3 3 2 2 2 1 1 1 1 1 1 1 1 1 1 1 1 1 0 0 0 0 0 0 1 1 1 1 1
4 4 5 5 5 4 4 4 4 3 3 4 4 4 4 4 3 3 2 2 2 2 2 1 1 1 1 1 1 1 1 1 1 0 0 0 0 0 1 1 1 1 1
4 5 5 6 5 4 4 4 4 3 4 4 5 4 4 4 4 3 2 2 2 2 2 2 2 2 2 2 2 2 1 1 1 1 1 0 0 0 1 1 1 1 1
Wind_Speed
13 15 15 12 13 13 14 15 15 15 15 15 15 14 13 13 13 13 13 13 13 13 14 15 15 15 15 15 15 15 15 15 15 16 16 16 16 15 14 13 14 15 16
16 17 16 13 13 14 14 15 15 15 15 15 14 14 13 13 13 13 13 13 13 14 14 15 15 15 15 15 15 15 15 15 15 16 16 16 15 13 12 11 13 14 15
18 18 17 14 14 14 14 15 15 15 15 15 14 14 13 13 13 13 13 13 13 14 15 15 15 15 14 14 14 14 15 14 13 12 12 13 14 13 14 16 16 15 15
18 17 16 16 15 14 15 14 15 15 14 14 14 13 13 13 13 13 13 13 13 14 14 14 15 15 14 14 14 14 14 13 10 8 8 12 13 14 14 15 15 14 14
17 17 17 17 15 15 14 14 14 14 14 14 13 13 13 12 12 13 13 13 13 14 14 14 14 14 14 14 14 14 13 11 7 6 11 11 12 13 14 14 14 14 14
17 17 18 16 16 15 14 14 14 14 13 13 13 12 12 12 12 13 12 13 13 13 14 14 14 13 13 13 13 13 12 9 8 10 10 11 12 13 13 14 13 13 13
17 17 19 16 16 15 14 14 13 13 13 13 12 12 12 12 12 12 12 12 13 13 13 13 12 12 12 12 12 12 9 4 7 9 9 10 12 12 13 13 13 13 12
17 17 18 17 15 15 14 14 13 13 12 12 12 12 12 12 12 12 12 12 12 12 12 12 12 11 11 12 12 11 8 4 9 9 10 11 12 11 12 12 12 12 12
16 16 16 16 15 14 13 13 13 12 12 12 12 12 12 12 12 12 11 12 12 12 12 11 11 11 11 11 11 9 5 2 6 7 9 10 10 11 11 11 11 11 11
14 15 15 15 14 14 14 13 13 12 12 11 12 12 12 12 12 11 11 11 11 11 11 11 10 10 10 10 10 9 7 5 7 8 7 10 10 10 11 11 11 10 10
14 13 14 14 13 13 13 14 13 12 11 11 11 12 12 10 10 10 12 11 11 11 10 10 10 10 10 10 10 9 8 3 7 6 7 12 9 10 10 10 10 10 9
16 15 13 13 13 12 10 11 9 10 10 9 9 10 7 6 5 8 12 10 10 10 10 9 9 9 7 8 9 9 4 5 6 6 9 10 9 9 9 9 9 9 9
16 15 13 13 11 11 9 9 6 6 7 7 9 8 6 6 6 7 7 8 8 9 8 9 8 5 4 4 4 3 4 4 3 5 9 9 8 8 8 8 8 8 8
17 16 14 14 11 10 9 7 7 6 6 6 8 8 7 4 4 5 4 5 6 4 4 4 3 4 4 4 4 4 4 3 3 4 8 9 7 7 8 7 7 7 7
16 16 15 14 13 11 8 7 7 6 7 7 6 6 6 5 5 5 4 3 4 4 5 4 3 4 4 4 4 4 4 4 4 4 7 9 7 6 7 7 7 7 6
17 16 14 14 13 11 9 7 6 7 6 6 7 8 7 5 5 5 5 4 4 4 3 3 4 4 3 3 3 4 3 4 4 3 6 9 8 6 6 6 6 7 6
17 16 15 14 13 13 11 10 7 7 7 7 6 8 8 7 6 5 5 5 4 4 4 3 4 4 4 3 3 4 3 3 4 4 4 4 7 9 7 6 6 6 7
16 16 15 13 14 13 11 9 7 7 7 6 7 7 9 7 7 6 5 5 5 5 5 4 3 3 3 3 3 3 3 3 4 4 4 4 3 5 9 8 7 7 7
16 16 16 15 15 13 12 9 8 7 7 6 7 7 8 8 8 7 5 4 6 5 4 4 4 3 3 3 3 3 3 4 4 4 4 5 4 3 4 9 8 7 7
15 15 15 15 14 13 10 9 7 8 8 7 7 7 9 7 8 7 6 6 7 5 5 3 4 3 2 3 4 3 3 3 4 4 5 5 5 5 5 5 7 9 10
15 16 15 15 14 12 10 10 9 9 9 8 8 9 9 9 8 7 6 7 6 5 5 6 5 5 4 3 3 3 4 5 4 4 4 4 5 5 4 4 5 4 7
16 16 15 15 15 14 11 10 9 9 8 8 8 9 10 10 9 8 7 7 7 5 6 6 5 4 4 4 4 3 3 5 5 6 5 5 5 5 6 7 5 4 4
16 17 14 15 15 15 13 9 8 7 7 8 9 9 11 11 10 9 9 8 7 8 7 7 7 7 5 5 4 4 3 3 3 5 6 5 5 5 5 5 7 6 7
15 14 15 15 15 15 14 12 13 11 11 11 10 9 11 12 11 11 10 10 9 8 7 8 8 6 6 5 5 4 4 3 3 3 5 6 7 7 6 5 6 6 7
14 13 13 14 15 15 15 14 14 13 11 9 10 11 11 11 12 12 11 10 9 8 8 8 6 8 7 7 6 5 5 4 6 5 3 4 5 6 6 6 5 5 5
12 12 12 14 14 15 16 16 16 16 13 12 12 11 11 9 10 13 12 11 10 9 9 8 8 10 8 7 6 5 5 5 6 5 5 5 4 4 5 4 5 5 5
Wind_Direction
147 136 137 140 136 133 130 130 129 127 126 123 121 119 116 113 111 109 107 107 107 106 107 110 110 109 108 108 107 106 104 103 103 103 103 102 103 104 106 114 115 102 103
142 136 141 142 138 134 131 129 128 127 126 124 122 120 117 113 111 109 108 107 107 107 107 108 109 110 109 108 108 107 106 105 106 108 111 107 102 100 97 88 83 99 106
140 138 145 143 138 134 132 129 128 128 127 125 123 121 119 116 113 111 111 109 108 108 108 109 110 108 108 108 107 107 107 106 110 123 135 114 104 98 96 95 98 105 104
141 142 144 141 139 135 133 131 129 129 128 127 125 124 122 119 115 113 111 110 109 109 109 109 109 109 109 109 108 108 109 111 122 159 121 105 107 102 103 103 104 105 105
142 142 136 145 141 138 135 133 132 131 131 130 129 127 124 120 117 114 112 112 111 110 110 110 109 109 109 111 111 111 112 118 147 132 97 101 102 106 107 106 105 105 106
146 143 138 147 143 141 139 137 135 134 133 132 129 127 124 121 119 117 115 112 112 112 111 111 111 110 111 112 113 114 119 142 166 103 108 108 105 109 109 108 108 107 105
148 142 141 149 146 144 142 140 138 136 134 131 129 127 124 123 119 118 116 115 114 113 113 114 113 112 112 112 114 116 122 168 109 105 103 99 100 108 108 107 107 106 106
148 143 140 149 148 147 145 143 141 139 136 134 132 129 126 124 121 119 117 118 117 117 116 115 113 112 111 113 115 120 133 193 116 109 106 101 103 111 111 109 107 106 106
151 145 149 153 152 150 148 146 145 142 139 137 134 131 128 125 122 120 118 118 118 119 118 117 115 114 116 117 119 122 125 286 117 114 110 105 113 117 116 115 113 110 109
154 152 155 155 155 158 154 150 147 145 143 141 137 135 131 128 127 127 130 119 121 120 119 119 117 116 120 122 125 129 148 214 117 119 109 110 121 121 120 118 116 113 113
161 159 160 156 161 163 157 150 155 152 149 150 146 141 154 153 142 150 115 124 125 122 121 121 120 121 129 131 133 147 185 149 114 104 100 113 128 125 124 122 121 118 116
167 167 166 161 165 165 156 153 164 163 158 169 151 156 160 135 137 121 118 129 128 127 129 124 128 152 178 143 145 182 164 125 124 118 106 125 133 132 129 127 126 126 123
170 171 168 165 171 167 160 162 166 161 157 164 155 158 146 147 145 137 146 144 144 155 153 145 172 169 141 115 140 146 119 131 118 117 117 136 141 141 137 136 134 134 135
174 175 171 168 171 174 170 165 169 165 165 163 156 170 154 154 154 142 153 152 156 157 146 160 153 129 123 137 135 123 136 139 121 110 121 142 150 152 149 148 147 147 148
178 177 173 174 172 174 173 178 175 169 168 158 158 167 165 160 161 148 149 159 165 151 162 166 155 140 145 151 148 136 130 120 123 132 125 146 156 160 162 162 164 163 162
182 179 174 180 176 176 177 182 174 172 167 168 169 165 179 167 158 157 164 171 167 165 154 162 152 161 169 151 152 141 156 142 136 146 137 150 164 172 178 179 178 177 176
183 178 177 183 180 182 182 184 181 179 176 177 167 167 180 178 164 173 171 179 171 158 154 176 159 172 177 172 164 156 159 164 151 151 152 157 164 175 186 192 193 193 192
183 179 181 183 183 185 185 188 185 185 180 180 175 173 181 181 177 186 183 183 166 178 180 169 187 183 175 178 169 177 161 162 171 170 174 177 178 169 175 187 199 202 205
184 182 183 186 184 186 186 186 192 186 186 185 184 179 179 185 186 197 191 174 181 189 188 194 165 196 180 185 179 176 189 177 172 188 180 182 181 196 173 163 185 200 209
185 185 186 186 186 186 186 186 193 191 192 194 190 185 182 185 191 201 191 182 200 192 190 196 166 187 198 202 209 170 192 181 191 181 201 191 186 197 200 175 184 191 202
188 188 188 188 186 185 186 188 194 193 195 195 195 189 190 193 191 203 204 181 206 201 199 194 192 184 199 198 205 194 190 202 197 194 212 212 194 199 202 201 219 201 186
189 190 191 191 190 191 192 193 198 197 198 195 196 190 197 197 198 201 211 201 199 202 201 205 203 210 201 198 222 214 203 195 202 208 203 215 217 206 211 207 208 215 242
191 191 191 192 192 194 192 191 194 194 201 195 199 196 200 199 201 211 205 215 204 211 201 205 204 210 215 205 224 239 235 222 192 188 210 218 215 221 225 216 214 210 223
192 191 193 192 194 194 192 195 196 199 201 201 199 197 195 200 203 206 210 211 213 216 207 209 207 211 216 220 209 237 267 311 264 206 199 206 211 221 234 233 223 213 219
191 190 193 193 196 196 197 198 202 209 210 202 199 199 199 198 204 207 209 209 211 218 212 220 210 218 217 226 223 216 221 226 248 263 239 214 208 215 216 222 233 232 221
189 190 191 193 196 197 198 200 206 211 210 204 202 198 200 200 202 206 209 207 210 217 210 212 215 215 226 230 236 232 227 226 231 240 245 239 233 220 213 224 232 230 230